Time,TemperatureF,DewpointF,PressureIn,WindDirection,WindDirectionDegrees,WindSpeedMPH,WindSpeedGustMPH,Humidity,HourlyPrecipIn,Conditions,Clouds,dailyrainin,SolarRadiationWatts/m^2,SoftwareType,DateUTC
2013-03-28 09:02:00,73.0,59.0,-100.00,ENE,73,16.0,23.0,61,-99.99,,,0.00,304.000000,,2013-03-28 19:02:00,
2013-03-28 09:12:00,73.0,59.0,-100.00,ENE,73,16.0,23.0,61,-99.99,,,0.00,304.000000,,2013-03-28 19:12:00,
2013-03-28 09:22:00,73.0,59.0,-100.00,ENE,73,16.0,23.0,61,-99.99,,,0.00,304.000000,,2013-03-28 19:22:00,
2013-03-28 09:32:00,73.0,59.0,-100.00,ENE,73,16.0,23.0,61,-99.99,,,0.00,304.000000,,2013-03-28 19:32:00,
2013-03-28 10:02:00,75.0,58.0,-100.00,NE,53,15.0,24.0,55,0.00,,,0.00,549.000000,,2013-03-28 20:02:00,
2013-03-28 10:12:00,75.0,58.0,-100.00,NE,53,15.0,24.0,55,0.00,,,0.00,549.000000,,2013-03-28 20:12:00,
2013-03-28 10:22:00,75.0,58.0,-100.00,NE,53,15.0,24.0,55,0.00,,,0.00,549.000000,,2013-03-28 20:22:00,
2013-03-28 10:32:00,75.0,58.0,-100.00,NE,53,15.0,24.0,55,0.00,,,0.00,549.000000,,2013-03-28 20:32:00,
2013-03-28 11:02:00,78.0,58.0,-100.00,NE,37,14.0,24.0,50,0.00,,,0.00,823.000000,,2013-03-28 21:02:00,
2013-03-28 11:12:00,78.0,58.0,-100.00,NE,37,14.0,24.0,50,0.00,,,0.00,823.000000,,2013-03-28 21:12:00,
2013-03-28 11:22:00,78.0,58.0,-100.00,NE,37,14.0,24.0,50,0.00,,,0.00,823.000000,,2013-03-28 21:22:00,
2013-03-28 11:32:00,78.0,58.0,-100.00,NE,37,14.0,24.0,50,0.00,,,0.00,823.000000,,2013-03-28 21:32:00,
2013-03-28 12:02:00,79.0,58.0,-100.00,NE,45,18.0,27.0,49,0.00,,,0.00,998.000000,,2013-03-28 22:02:00,
2013-03-28 12:12:00,79.0,58.0,-100.00,NE,45,18.0,27.0,49,0.00,,,0.00,998.000000,,2013-03-28 22:12:00,
2013-03-28 12:22:00,79.0,58.0,-100.00,NE,45,18.0,27.0,49,0.00,,,0.00,998.000000,,2013-03-28 22:22:00,
2013-03-28 12:32:00,79.0,58.0,-100.00,NE,45,18.0,27.0,49,0.00,,,0.00,998.000000,,2013-03-28 22:32:00,
2013-03-28 13:02:00,79.0,58.0,-100.00,NE,53,21.0,34.0,49,0.00,,,0.00,1084.000000,,2013-03-28 23:02:00,
2013-03-28 13:12:00,79.0,58.0,-100.00,NE,53,21.0,34.0,49,0.00,,,0.00,1084.000000,,2013-03-28 23:12:00,
2013-03-28 13:21:00,79.0,58.0,-100.00,NE,53,21.0,34.0,49,0.00,,,0.00,1084.000000,,2013-03-28 23:21:00,
2013-03-28 13:32:00,79.0,58.0,-100.00,NE,53,21.0,34.0,49,0.00,,,0.00,1084.000000,,2013-03-28 23:32:00,
2013-03-28 14:02:00,80.0,59.0,-100.00,NE,53,19.0,30.0,49,0.00,,,0.00,1067.000000,,2013-03-29 00:02:00,
2013-03-28 14:12:00,80.0,59.0,-100.00,NE,53,19.0,30.0,49,0.00,,,0.00,1067.000000,,2013-03-29 00:12:00,
2013-03-28 14:22:00,80.0,59.0,-100.00,NE,53,19.0,30.0,49,0.00,,,0.00,1067.000000,,2013-03-29 00:22:00,
2013-03-28 14:32:00,80.0,59.0,-100.00,NE,53,19.0,30.0,49,0.00,,,0.00,1067.000000,,2013-03-29 00:32:00,
2013-03-28 15:02:00,79.0,56.0,-100.00,ENE,64,22.0,32.0,46,0.00,,,-99.99,955.000000,,2013-03-29 01:02:00,
2013-03-28 15:12:00,79.0,56.0,-100.00,ENE,64,22.0,32.0,46,0.00,,,-99.99,955.000000,,2013-03-29 01:12:00,
2013-03-28 15:22:00,79.0,56.0,-100.00,ENE,64,22.0,32.0,46,0.00,,,-99.99,955.000000,,2013-03-29 01:22:00,
2013-03-28 15:31:00,79.0,56.0,-100.00,ENE,64,22.0,32.0,46,0.00,,,-99.99,955.000000,,2013-03-29 01:31:00,
2013-03-28 16:02:00,80.0,54.0,-100.00,ENE,58,19.0,30.0,41,0.00,,,-99.99,825.000000,,2013-03-29 02:02:00,
2013-03-28 16:12:00,80.0,54.0,-100.00,ENE,58,19.0,30.0,41,0.00,,,-99.99,825.000000,,2013-03-29 02:12:00,
2013-03-28 16:22:00,80.0,54.0,-100.00,ENE,58,19.0,30.0,41,0.00,,,-99.99,825.000000,,2013-03-29 02:22:00,
2013-03-28 16:32:00,80.0,54.0,-100.00,ENE,58,19.0,30.0,41,0.00,,,-99.99,825.000000,,2013-03-29 02:32:00,
2013-03-28 17:02:00,77.0,53.0,-100.00,NE,52,19.0,29.0,43,0.00,,,-99.99,612.000000,,2013-03-29 03:02:00,
2013-03-28 17:12:00,77.0,53.0,-100.00,NE,52,19.0,29.0,43,0.00,,,-99.99,612.000000,,2013-03-29 03:12:00,
2013-03-28 17:21:00,77.0,53.0,-100.00,NE,52,19.0,29.0,43,0.00,,,-99.99,612.000000,,2013-03-29 03:21:00,
2013-03-28 17:32:00,77.0,53.0,-100.00,NE,52,19.0,29.0,43,0.00,,,-99.99,612.000000,,2013-03-29 03:32:00,
2013-03-28 18:02:00,76.0,54.0,-100.00,NE,44,14.0,28.0,47,0.00,,,-99.99,328.000000,,2013-03-29 04:02:00,
2013-03-28 18:12:00,76.0,54.0,-100.00,NE,44,14.0,28.0,47,0.00,,,-99.99,328.000000,,2013-03-29 04:12:00,
2013-03-28 18:22:00,76.0,54.0,-100.00,NE,44,14.0,28.0,47,0.00,,,-99.99,328.000000,,2013-03-29 04:22:00,
2013-03-28 18:32:00,76.0,54.0,-100.00,NE,44,14.0,28.0,47,0.00,,,-99.99,328.000000,,2013-03-29 04:32:00,
2013-03-28 19:02:00,72.0,55.0,-100.00,NE,49,15.0,25.0,56,0.00,,,-99.99,77.000000,,2013-03-29 05:02:00,
2013-03-28 19:12:00,72.0,55.0,-100.00,NE,49,15.0,25.0,56,0.00,,,-99.99,77.000000,,2013-03-29 05:12:00,
2013-03-28 19:22:00,72.0,55.0,-100.00,NE,49,15.0,25.0,56,0.00,,,-99.99,77.000000,,2013-03-29 05:22:00,
2013-03-28 19:32:00,72.0,55.0,-100.00,NE,49,15.0,25.0,56,0.00,,,-99.99,77.000000,,2013-03-29 05:32:00,
2013-03-28 20:02:00,71.0,55.0,-100.00,ENE,61,12.0,21.0,57,0.00,,,-99.99,0.000000,,2013-03-29 06:02:00,
2013-03-28 20:12:00,71.0,55.0,-100.00,ENE,61,12.0,21.0,57,0.00,,,-99.99,0.000000,,2013-03-29 06:12:00,
2013-03-28 20:22:00,71.0,55.0,-100.00,ENE,61,12.0,21.0,57,0.00,,,-99.99,0.000000,,2013-03-29 06:22:00,
2013-03-28 20:32:00,71.0,55.0,-100.00,ENE,61,12.0,21.0,57,0.00,,,-99.99,0.000000,,2013-03-29 06:32:00,
2013-03-28 21:02:00,71.0,58.0,-100.00,NE,38,6.0,17.0,63,0.00,,,-99.99,0.000000,,2013-03-29 07:02:00,
2013-03-28 21:12:00,71.0,58.0,-100.00,NE,38,6.0,17.0,63,0.00,,,-99.99,0.000000,,2013-03-29 07:12:00,
2013-03-28 21:22:00,71.0,58.0,-100.00,NE,38,6.0,17.0,63,0.00,,,-99.99,0.000000,,2013-03-29 07:22:00,
2013-03-28 21:32:00,71.0,58.0,-100.00,NE,38,6.0,17.0,63,0.00,,,-99.99,0.000000,,2013-03-29 07:32:00,
2013-03-28 22:02:00,70.0,58.0,-100.00,ENE,75,12.0,16.0,66,0.00,,,-99.99,0.000000,,2013-03-29 08:02:00,
2013-03-28 22:12:00,70.0,58.0,-100.00,ENE,75,12.0,16.0,66,0.00,,,-99.99,0.000000,,2013-03-29 08:12:00,
2013-03-28 22:22:00,70.0,58.0,-100.00,ENE,75,12.0,16.0,66,0.00,,,-99.99,0.000000,,2013-03-29 08:22:00,
2013-03-28 22:32:00,70.0,58.0,-100.00,ENE,75,12.0,16.0,66,0.00,,,-99.99,0.000000,,2013-03-29 08:32:00,
2013-03-28 23:02:00,67.0,54.0,-100.00,East,91,13.0,19.0,63,0.00,,,-99.99,0.000000,,2013-03-29 09:02:00,
2013-03-28 23:12:00,67.0,54.0,-100.00,East,91,13.0,19.0,63,0.00,,,-99.99,0.000000,,2013-03-29 09:12:00,
2013-03-28 23:22:00,67.0,54.0,-100.00,East,91,13.0,19.0,63,0.00,,,-99.99,0.000000,,2013-03-29 09:22:00,
2013-03-28 23:32:00,67.0,54.0,-100.00,East,91,13.0,19.0,63,0.00,,,-99.99,0.000000,,2013-03-29 09:32:00,